CZ-6A R/B

Last updated on Wed Jun 24 2026 00:02:07 GMT+0000 (Coordinated Universal Time)

1 69400U 26124U 26173.79733690 .00000183 00000+0 33869-4 0 9991 2 69400 89.0257 1.3040 0099460 43.0129 317.8801 14.57305524 2676
UTC large
Height (km)
Speed (km/s)
/
Latitude / Longitude
Inclination (degrees)
Orbital Period (minutes)
Azimuth
Elevation
Range (km)
Doppler Factor

Next 0 passes for location: London (51.5072 / 0.1276)

No passes found over London.
CZ-6A R/B